Location: Ferchesar
(52.6477°N, 12.4298°E)
Time: 20:45:01
(UTC+01:00)

Vanguard 2 Rocket - Visible Passes

Search period start: 28 February 2021 00:00
Search period end: 10 March 2021 00:00
Orbit: 554 x 3325 km, 32.9° (Epoch: 28 February)

Date Brightness Start Highest point End Pass type
(mag) Time Alt. Az. Time Alt. Az. Time Alt. Az.
28 Feb 9.7 06:01:02 10° SSW 06:08:33 26° SSE 06:19:34 10° ESE visible
01 Mar 9.6 05:03:08 10° SSW 05:08:58 19° SSE 05:17:00 10° ESE visible
02 Mar 9.6 04:06:22 10° SSE 04:09:43 13° SE 04:13:45 10° ESE visible
02 Mar 9.5 06:14:13 10° SW 06:21:35 26° SSE 06:32:31 10° ESE visible
03 Mar 9.4 05:16:00 10° SSW 05:21:56 21° SSE 05:30:21 10° ESE visible
04 Mar 9.3 04:18:27 10° S 04:22:36 15° SSE 04:27:55 10° ESE visible
05 Mar 9.3 05:29:15 10° SSW 05:35:03 22° SSE 05:43:22 10° ESE visible
06 Mar 9.1 04:31:41 11° SSW 04:35:38 17° SSE 04:41:25 10° ESE visible
07 Mar 9.2 03:35:25 11° SSE 03:36:30 11° SSE 03:38:49 10° SE visible
07 Mar 9.2 05:42:49 10° SW 05:48:17 21° S 05:56:02 10° SE visible
08 Mar 9.0 04:44:56 11° SSW 04:48:50 17° SSE 04:54:31 10° SE visible
09 Mar 9.1 03:48:40 12° SSE 03:49:38 13° SSE 03:52:42 10° SE visible
09 Mar 9.2 05:56:45 10° SW 06:01:38 18° S 06:08:17 10° SE visible
